ANA3271 PGUM-RJTT

Flight info

Callsign ANA3271
Flight time N/A
Altitude 34000
Route TOESS B586 VASKO UKATA B586 IPRET/N0454F350 B586 SABRI Y873 FITTO Y87 TOPIT Y875 AROSA
Aircraft A21N/M-SDE3FGHIRWY/LB1

Departure

Time 2026-04-18 10:07
Airport Antonio B. Won Pat International Airport (PGUM)

Arrival

Time N/A
Airport Tokyo Haneda International Airport (RJTT)
Time Latitude Longitude Altitude Speed Heading
2026-04-18 09:54 13.49353 144.80901 289 ft 0 kts 330°
2026-04-18 09:58 13.49352 144.80901 289 ft 0 kts 330°
2026-04-18 10:00 13.49351 144.80902 289 ft 2 kts 330°
2026-04-18 10:00 13.49333 144.80913 291 ft 2 kts 330°
2026-04-18 10:01 13.49314 144.80924 293 ft 2 kts 330°
2026-04-18 10:01 13.49296 144.80934 295 ft 2 kts 330°
2026-04-18 10:01 13.49277 144.80942 296 ft 1 kts 20°
2026-04-18 10:01 13.49268 144.80934 296 ft 1 kts 66°
2026-04-18 10:02 13.49266 144.80930 296 ft 0 kts 60°
2026-04-18 10:03 13.49266 144.80928 296 ft 0 kts 60°
2026-04-18 10:03 13.49276 144.80955 297 ft 9 kts 90°
2026-04-18 10:03 13.49188 144.80980 304 ft 10 kts 200°
2026-04-18 10:04 13.49158 144.80969 305 ft 7 kts 200°
2026-04-18 10:04 13.49082 144.80998 312 ft 8 kts 62°
2026-04-18 10:04 13.49115 144.81064 315 ft 3 kts 73°
2026-04-18 10:04 13.49117 144.81084 316 ft 3 kts 85°
2026-04-18 10:05 13.49120 144.81163 322 ft 6 kts 78°
2026-04-18 10:05 13.49137 144.81194 323 ft 3 kts 355°
2026-04-18 10:05 13.49160 144.81128 317 ft 9 kts 217°
2026-04-18 10:05 13.49131 144.81104 317 ft 0 kts 246°
2026-04-18 10:06 13.49076 144.80972 310 ft 53 kts 246°
2026-04-18 10:06 13.48809 144.80392 286 ft 120 kts 244°
2026-04-18 10:07 13.48358 144.79422 271 ft 173 kts 245°
2026-04-18 10:07 13.47845 144.78304 860 ft 171 kts 244°
2026-04-18 10:07 13.47311 144.77185 1492 ft 173 kts 244°
2026-04-18 10:07 13.46838 144.76028 2118 ft 176 kts 259°
2026-04-18 10:08 13.47100 144.74773 2516 ft 193 kts 302°
2026-04-18 10:08 13.48224 144.73879 2912 ft 215 kts 339°
2026-04-18 10:08 13.49799 144.73872 3228 ft 244 kts 20°
2026-04-18 10:08 13.51310 144.74828 3717 ft 262 kts 34°
2026-04-18 10:09 13.52974 144.75678 4193 ft 274 kts
2026-04-18 10:09 13.54882 144.75520 4959 ft 272 kts 342°
2026-04-18 10:09 13.56725 144.75027 5828 ft 277 kts 345°
2026-04-18 10:09 13.58593 144.74625 6771 ft 280 kts 346°
2026-04-18 10:10 13.60510 144.74223 7647 ft 283 kts 346°
2026-04-18 10:10 13.62471 144.73805 8477 ft 288 kts 346°
2026-04-18 10:10 13.64436 144.73378 9266 ft 292 kts 346°
2026-04-18 10:10 13.67263 144.72754 10318 ft 299 kts 346°
2026-04-18 10:11 13.70621 144.72002 11035 ft 324 kts 346°
2026-04-18 10:11 13.72936 144.71483 11479 ft 339 kts 346°
2026-04-18 10:11 13.75258 144.70961 12138 ft 345 kts 346°
2026-04-18 10:11 13.77629 144.70428 12822 ft 349 kts 346°
2026-04-18 10:12 13.80036 144.69887 13462 ft 354 kts 346°
2026-04-18 10:12 13.82477 144.69338 14125 ft 359 kts 346°
2026-04-18 10:12 13.84934 144.68785 14802 ft 362 kts 346°
2026-04-18 10:12 13.87443 144.68219 15468 ft 365 kts 346°
2026-04-18 10:13 13.89936 144.67658 16115 ft 368 kts 346°
2026-04-18 10:13 13.92446 144.67091 16726 ft 372 kts 346°
2026-04-18 10:13 13.95020 144.66511 17347 ft 375 kts 346°
2026-04-18 10:13 13.97600 144.65929 17946 ft 377 kts 346°
2026-04-18 10:14 14.00192 144.65344 18515 ft 380 kts 346°
2026-04-18 10:14 14.02946 144.64720 19097 ft 384 kts 346°
2026-04-18 10:14 14.06634 144.63886 19837 ft 387 kts 347°
2026-04-18 10:14 14.10392 144.63036 20547 ft 391 kts 347°